User: anonymous   Login
Location: Focicchia
(42.2496°N, 9.2935°E)
Time: 06:25:27
(UTC+00:00)
Language:

Tiangong - Orbit

View from above orbital plane
View from above orbital plane
View from above satellite
View from above satellite

Ground track
Ground track

The orbit data is extracted from the following two-line orbital elements,

1 48274U 21035A   21268.53624609  .00002722  00000-0  35036-4 0  9994
2 48274  41.4711  30.8878 0002139 326.1356 138.2927 15.61306793 23390
Epoch (UTC): 25 September 2021 12:52:11
Eccentricity: 0.0002139
inclination: 41.4711°
perigee height: 382 km
apogee height: 385 km
right ascension of ascending node: 30.8878°
argument of perigee: 326.1356°
revolutions per day: 15.61306793
mean anomaly at epoch: 138.2927°
orbit number at epoch: 2339

The dashed part of the orbit path shows where the satellite is in the earth's shadow,  

DLR